Le nostre stazioni meteo in Italia

Pubblicità
Il mio iltempo24.it
Pantelleria, Italia (16470): Temperatura & dewpoint: 16.06.2017 22:00:00 - 22.06.2017 22:00:00 (CEST)Pantelleria, Italia (16470): velocità del vento: 16.06.2017 22:00:00 - 22.06.2017 22:00:00 (CEST)Pantelleria, Italia (16470): direzione del vento: 16.06.2017 22:00:00 - 22.06.2017 22:00:00 (CEST)Pantelleria, Italia (16470): reduced air pressure: 16.06.2017 22:00:00 - 22.06.2017 22:00:00 (CEST)Pantelleria, Italia (16470): visibility: 16.06.2017 22:00:00 - 22.06.2017 22:00:00 (CEST)Pantelleria, Italia (16470): ore di luce: 16.06.2017 22:00:00 - 22.06.2017 22:00:00 (CEST)
Data & Tempo tt [°C] td [°C] ff [km/h] ff [kn] dd ppp [hPa] vv [km] sd [min]
22.06.2017 22:00:00 - - - - - - - -
22.06.2017 21:00:00 - - - - - - - -
22.06.2017 20:00:00 24,2 22,3 4 2 NNE 1017,8 20 60
22.06.2017 19:00:00 25,0 22,5 5 3 N 1017,7 20 60
22.06.2017 18:00:00 27,6 17,8 8 4 NE 1017,6 20 60
22.06.2017 17:00:00 26,2 22,1 11 6 NE 1017,9 20 60
22.06.2017 16:00:00 25,6 22,1 15 8 NE 1018,1 20 60
22.06.2017 15:00:00 25,0 22,1 11 6 NE 1018,2 20 60
22.06.2017 14:00:00 25,0 22,3 9 5 NNE 1018,5 20 60
22.06.2017 13:00:00 25,0 22,5 9 5 O 1018,7 20 60
22.06.2017 12:00:00 25,0 22,5 5 3 E 1018,7 20 60
22.06.2017 11:00:00 25,0 21,3 8 4 OSO 1018,2 25 60
22.06.2017 10:00:00 25,0 20,5 5 3 O 1017,7 25 60
22.06.2017 09:00:00 25,8 14,6 11 6 S 1017,4 25 60
22.06.2017 08:00:00 23,8 17,1 8 4 NE 1017,1 25 60
22.06.2017 07:00:00 20,0 14,8 15 8 SSO 1017,2 20 18
22.06.2017 06:00:00 - - - - - - - -
22.06.2017 05:00:00 - - - - - - - -
22.06.2017 04:00:00 - - - - - - - -
22.06.2017 03:00:00 - - - - - - - -
22.06.2017 02:00:00 - - - - - - - -
22.06.2017 01:00:00 - - - - - - - -
22.06.2017 00:00:00 - - - - - - - -
21.06.2017 23:00:00 - - - - - - - -
21.06.2017 22:00:00 - - - - - - - -
21.06.2017 21:00:00 - - - - - - - -
21.06.2017 20:00:00 24,4 11,7 24 13 S 1016,0 20 60
21.06.2017 19:00:00 25,6 12,8 24 13 S 1016,0 20 60
21.06.2017 18:00:00 26,0 11,7 24 13 S 1016,0 20 60
21.06.2017 17:00:00 26,8 21,3 22 12 S 1016,3 20 60
21.06.2017 16:00:00 26,2 17,8 22 12 S 1016,9 20 60
21.06.2017 15:00:00 27,0 16,9 29 16 S 1017,1 20 60
21.06.2017 14:00:00 27,0 16,3 31 17 S 1017,4 20 60
21.06.2017 13:00:00 26,6 17,1 31 17 S 1017,6 20 60
21.06.2017 12:00:00 26,6 13,4 24 13 S 1017,7 10 60
21.06.2017 11:00:00 26,0 18,4 21 11 S 1017,7 20 60
21.06.2017 10:00:00 24,6 18,8 21 11 S 1017,8 20 60
21.06.2017 09:00:00 24,2 19,7 21 11 S 1017,9 20 60
21.06.2017 08:00:00 22,8 19,4 16 9 S 1018,0 20 60
21.06.2017 07:00:00 21,2 18,4 21 11 S 1017,9 15 24
21.06.2017 06:00:00 - - - - - - - -
21.06.2017 05:00:00 - - - - - - - -
21.06.2017 04:00:00 - - - - - - - -
21.06.2017 03:00:00 - - - - - - - -
21.06.2017 02:00:00 - - - - - - - -
21.06.2017 01:00:00 - - - - - - - -
21.06.2017 00:00:00 - - - - - - - -
20.06.2017 23:00:00 - - - - - - - -
20.06.2017 22:00:00 - - - - - - - -
20.06.2017 21:00:00 - - - - - - - -
20.06.2017 20:00:00 25,0 17,2 18 10 S 1018,6 25 60
20.06.2017 19:00:00 27,0 16,9 18 10 S 1018,5 25 60
20.06.2017 18:00:00 27,4 14,4 22 12 SSO 1018,6 25 60
20.06.2017 17:00:00 28,0 12,0 11 6 SSO 1019,3 25 60
20.06.2017 16:00:00 27,8 13,0 13 7 S 1019,5 25 60
20.06.2017 15:00:00 26,4 21,8 8 4 N 1020,0 20 60
20.06.2017 14:00:00 25,4 21,7 5 3 SO 1020,6 20 60
20.06.2017 13:00:00 26,0 21,0 11 6 N 1020,8 10 60
20.06.2017 12:00:00 26,6 21,4 8 4 E 1020,7 20 60
20.06.2017 11:00:00 26,0 17,6 13 7 SSO 1020,5 20 60
20.06.2017 10:00:00 24,6 19,9 13 7 O 1020,4 20 60
20.06.2017 09:00:00 22,4 19,4 9 5 O 1020,6 20 60
20.06.2017 08:00:00 22,0 19,2 9 5 OSO 1020,4 20 60
20.06.2017 07:00:00 20,6 17,8 11 6 SO 1020,1 20 60
20.06.2017 06:00:00 - - - - - - - -
20.06.2017 05:00:00 - - - - - - - -
20.06.2017 04:00:00 - - - - - - - -
20.06.2017 03:00:00 - - - - - - - -
20.06.2017 02:00:00 - - - - - - - -
20.06.2017 01:00:00 - - - - - - - -
20.06.2017 00:00:00 - - - - - - - -
19.06.2017 23:00:00 - - - - - - - -
19.06.2017 22:00:00 - - - - - - - -
19.06.2017 21:00:00 - - - - - - - -
19.06.2017 20:00:00 22,8 20,5 16 9 N 1018,4 20 18
19.06.2017 19:00:00 23,2 20,2 18 10 N 1018,5 20 60
19.06.2017 18:00:00 23,8 19,7 22 12 N 1018,4 20 60
19.06.2017 17:00:00 24,2 19,5 24 13 NNO 1018,6 25 60
19.06.2017 16:00:00 24,6 20,1 22 12 N 1018,8 25 60
19.06.2017 15:00:00 24,8 19,9 21 11 N 1018,6 25 60
19.06.2017 14:00:00 24,0 19,1 18 10 N 1019,0 25 60
19.06.2017 13:00:00 24,0 17,3 18 10 N 1019,0 20 60
19.06.2017 12:00:00 23,4 20,7 13 7 N 1019,0 15 60
19.06.2017 11:00:00 24,0 18,9 11 6 N 1018,9 12 60
19.06.2017 10:00:00 24,6 18,1 8 4 NE 1017,9 12 60
19.06.2017 09:00:00 23,2 18,3 4 2 NNE 1017,8 10 60
19.06.2017 08:00:00 22,8 19,8 5 3 NE 1017,2 10 54
19.06.2017 07:00:00 21,0 18,0 8 4 E 1017,2 10 0
19.06.2017 06:00:00 - - - - - - - -
19.06.2017 05:00:00 - - - - - - - -
19.06.2017 04:00:00 - - - - - - - -
19.06.2017 03:00:00 - - - - - - - -
19.06.2017 02:00:00 - - - - - - - -
19.06.2017 01:00:00 - - - - - - - -
19.06.2017 00:00:00 - - - - - - - -
18.06.2017 23:00:00 - - - - - - - -
18.06.2017 22:00:00 - - - - - - - -
18.06.2017 21:00:00 - - - - - - - -
18.06.2017 20:00:00 24,2 22,1 13 7 E 1015,0 12 60
18.06.2017 19:00:00 25,4 21,7 18 10 ENE 1014,1 10 60
18.06.2017 18:00:00 27,4 23,0 18 10 S 1013,3 15 60
18.06.2017 17:00:00 27,6 22,5 18 10 ONO 1013,1 15 60
18.06.2017 16:00:00 26,2 21,6 11 6 O 1013,5 15 60
18.06.2017 15:00:00 27,4 21,7 24 13 S 1012,8 12 12
18.06.2017 14:00:00 25,0 21,5 9 5 NNO 1013,2 10 12
18.06.2017 13:00:00 24,4 20,5 13 7 N 1013,1 6 24
18.06.2017 12:00:00 23,2 19,5 13 7 N 1012,9 6 6
18.06.2017 11:00:00 22,8 19,2 18 10 N 1012,8 6 12
18.06.2017 10:00:00 22,6 19,0 21 11 NNO 1012,7 8 6
18.06.2017 09:00:00 22,4 18,6 18 10 NNO 1012,0 9 24
18.06.2017 08:00:00 22,0 18,2 13 7 ONO 1011,9 8 6
18.06.2017 07:00:00 21,4 17,8 13 7 N 1011,6 8 0
18.06.2017 06:00:00 - - - - - - - -
18.06.2017 05:00:00 - - - - - - - -
18.06.2017 04:00:00 - - - - - - - -
18.06.2017 03:00:00 - - - - - - - -
18.06.2017 02:00:00 - - - - - - - -
18.06.2017 01:00:00 - - - - - - - -
18.06.2017 00:00:00 - - - - - - - -
17.06.2017 23:00:00 - - - - - - - -
17.06.2017 22:00:00 - - - - - - - -
17.06.2017 21:00:00 - - - - - - - -
17.06.2017 20:00:00 23,0 20,2 16 9 NO 1011,8 8 0
17.06.2017 19:00:00 24,0 21,3 15 8 NO 1011,8 8 60
17.06.2017 18:00:00 24,8 23,0 15 8 NO 1012,5 8 60
17.06.2017 17:00:00 26,0 23,3 22 12 NO 1012,7 10 60
17.06.2017 16:00:00 28,2 24,4 24 13 NNO 1012,6 12 60
17.06.2017 15:00:00 26,2 22,7 22 12 NNO 1013,8 12 60
17.06.2017 14:00:00 26,8 23,7 24 13 O 1013,8 12 60
17.06.2017 13:00:00 26,2 22,9 26 14 NO 1014,2 8 60
17.06.2017 12:00:00 25,0 21,7 24 13 O 1014,5 7 30
17.06.2017 11:00:00 23,4 20,2 22 12 NNO 1014,6 4,0 0
17.06.2017 10:00:00 23,2 20,3 22 12 NNO 1014,5 6 30
17.06.2017 09:00:00 25,0 22,9 16 9 O 1014,1 15 60
17.06.2017 08:00:00 24,4 20,7 13 7 O 1014,2 20 60
17.06.2017 07:00:00 23,4 18,7 5 3 OSO 1014,4 20 0
17.06.2017 06:00:00 - - - - - - - -
17.06.2017 05:00:00 - - - - - - - -
17.06.2017 04:00:00 - - - - - - - -
17.06.2017 03:00:00 - - - - - - - -
17.06.2017 02:00:00 - - - - - - - -
17.06.2017 01:00:00 - - - - - - - -
17.06.2017 00:00:00 - - - - - - - -
16.06.2017 23:00:00 - - - - - - - -
16.06.2017 22:00:00 - - - - - - - -

tt = Temperatura
td = dewpoint
ff = velocità del vento
dd = direzione del vento
ppp = reduced air pressure
vv = visibility
sd = ore di luce

Stazioni seguenti

WeatherPro
AMSI
MeteoEarth